Погода в Юсте

Хотите узнать прогноз погоды в Юсте? Тогда Вам сюда: Погода в Юсте

Поиск расширенной информации на нашем сайте:

Полезная информация:

Новости сайта



02.01.2020
Опубликован Долгосрочный прогноз погоды по городам России и ближнего зарубежья на январь 2020 года.
Карты: Прогноз на январь и февраль 2020 года, Сравнение прогнозируемой аномалии приземной температуры воздуха на январь 2020 года по разным моделям.




Погода в Юсте - сегодня

Время (UTC), дата Ветер
(°,м/с) 
Видим.   Явления Облачность Т
(°С)
Тd
(°С)
f(%) Тe
(°С)
Pmin
(гПа)
dP
(гПа)
Po
(мм)
O2
(г/м3)
Тmin Tmax R s Состояние
почвы
15 18.10.20 140 (ЮВ) 20000 м  пыльный позёмок  6/0 средняя, верхняя 
[Ac trans|Ci fib]
+23.3 +13.7 55 +30  1010  -1.3  757  278    +26       
18 18.10.20 150 (ЮВ) 10 км    ясно 
+14.2 +11.8 85 +17  1016.5  0.5  762  290           
21 18.10.20 160 (Ю) 10 км    ясно 
+11.5 +11.1 97 +14  1016.4  -0.1  762  293           
00 19.10.20 150 (ЮВ) 4000 м  дымка  ясно 
+9.2 +9 99 +9  1016.2  -0.2  762  295           
03 19.10.20 150 (ЮВ) 4000 м  дымка  10/0 
[Sc]
+8.6 +8.4 99 +10  1016.8  0.6  762  296  +8.1         
06 19.10.20 150 (ЮВ) 0500 м  туман  ?/?  
+12.1 +12.1 100 +16  1016.7  -0.1  762  292           
09 19.10.20 210 (ЮЗ) 20000 м  {туман}  10/10 600 м 
[Sc]
+14.2 +13.3 94 +20  1016.8  0.1  762  289           
12 19.10.20 040 (СВ) 20000 м  {туман}  5/0 средняя, верхняя 
[Ac trans|Ci fib]
+19.2 +12.2 64 +24  1014.8  -2  761  284           
15 19.10.20 030 (СВ) 10 км    5/0 средняя 
[Ac trans]
+16.3 +10.9 70 +19  1014.8  761  287    +20       
18 19.10.20 050 (СВ) 10 км    9/0 средняя 
[Ac trans]
+14.9 +9.5 70 +15  1015  0.2  761  289           
21 19.10.20 340 (С) 4000 м  слаб. ливневой дождь  10/10 300 м кучево-дожд. 
[Cb calv]
+12.8 +10.1 84 +13  1016.3  1.3  762  291           
00 20.10.20 010 (С) 8-13{13}  4000 м  слаб. ливневой дождь  10/10 300 м кучево-дожд. 
[Cb calv]
+9.5 +8.7 95 +7  1018.5  2.2  764  296           
03 20.10.20 350 (С) 20000 м  {ливн. осадки}  4/0 средняя 
[Ac cuf]
+8.4 +7.1 92 +7  1021.4  2.9  766  298  +8       
06 20.10.20 320 (СЗ) 4{10}  20000 м  {ливн. осадки}  ясно 
+9.4 +6.8 84 +8  1023.4  767  298  +7.5         
09 20.10.20 290 (З) 20000 м    6/5 1000 м 
[Cu hum]
+13.6 +5.6 58 +13  1023.3  -0.1  767  294           
12 20.10.20 260 (З) 20000 м    6/6 600 м кучево-дожд. 
[Cb calv]
+14.5 +4.9 52 +14  1022.6  -0.7  767  293           
15 20.10.20 270 (З) 10 км    9/6 600 м средняя 
[Sc|Ac cuf]
+12.3 +7.1 71 +13  1022.7  0.1  767  295    +15.1       
18 20.10.20 270 (З) 10 км    ясно 
+9.1 +6.3 83 +8  1023.5  0.8  767  298           
21 20.10.20 260 (З) 10 км    ясно 
+6.3 +4.2 86 +5  1023.7  0.2  768  302           
00 21.10.20 260 (З) 20000 м    ясно 
+4.8 +3.6 92 +4  1024.1  0.4  768  304           
03 21.10.20 260 (З) 20000 м    ясно 
+3.4 +1.3 86 +1  1025.5  1.2  769  306  +3.1         
06 21.10.20 280 (З) 20000 м    ясно 
+6.8 +2.4 73 +5  1027.2  1.7  770  302           
09 21.10.20 280 (З) 7-10{11}  20000 м    3/3 1000 м 
[Cu hum]
+11.2 -2.2 39 +10  1027.6  0.4  770  299           
12 21.10.20 270 (З) 7-10{12}  20000 м    3/3 1000 м 
[Cu hum]
+12.2 -2.8 35 +11  1026.6  -1  770  297           
15 21.10.20 260 (З) 3{11}  10 км    3/0 средняя 
[Ac trans]
+7.6 +0.6 61 +7  1027.4  0.8  770  302    +12.3       
Время (UTC), дата Ветер
(°,м/с) 
Видим.   Явления Облачность Т
(°С)
Тd
(°С)
f(%) Тe
(°С)
Pmin
(гПа)
dP
(гПа)
Po
(мм)
O2
(г/м3)
Тmin Tmax R s Состояние
почвы

Для получения пояснительной информации подведите курсор к названию столбца.

ПОГОДА в Юсте - архив

Всё, что Вы хотите узнать о погоде в Юсте - удобно и подробно!

Выберите нужную дату (начиная с 1 января 2019* года) и нажмите кнопку "Найти".
Будут отображены архивные сводки погоды по пункту Юста, начиная с указанной даты.


Отображать данные в формате CSV (для использования в таблицах Excel)


Внимание! Наш архив погоды предназначен исключительно для личного некоммерческого использования в познавательных целях. Если Вам необходимы официальные справки о состоянии погоды (для производственных, юридических, коммерческих и т.п. целей), обращайтесь в органы Росгидромета.

*Примечание: данная дата относится к архиву по метеостанциям СССР (Россия, СНГ, Балтия).
Архив по метеостанциям Зарубежной Европы и Азии (кроме Китая) хранится 10 дней, по другим регионам земного шара (Китай, Африка, Америка, Австралия, Океания) - 1 день.

Юста - район местоположения метеостанции


Название, широта, долгота, высота метеостанции:
Юста 47.1°ш. 46.3°д. 2 м над ур. моря [Российская Федерация]

Дополнительная информация

В oтличие oт бoльшинства пoгoдных сайтoв мы публикуем пoдрoбную метеoинфoрмацию в детальнoм прoфессиoнальнoм фoрмате.

Характеристики температуры и влажнoсти вoздуха измеряются на высoте 2 м в тени вдали oт зданий и деревьев.
Скoрoсть ветра измеряется на высoте 10 м (на урoвне рoста челoвека скoрoсть ветра ниже в 1.5-2 раза). Если метеoстанция нахoдится в гoрoде или в лесу, тo скoрoсть ветра занижена на 2-4 м/с пo сравнению с oткрытым местoм. Скoрoсть ветра над акватoриями крупных рек и oзёр, а также на вершинах хoлмoв на 2-5 м/с выше, чем в oбычных услoвиях.
Атмoсфернoе давление в разных тoчках местнoсти мoжет значительнo oтличаться oт давления на метеoстанции, в зависимoсти oт услoвий рельефа (при пoдъёме на 10 м давление пoнижается примернo на 1 мм рт.ст.).